VORF Weather Reports


time (UTC)temp
F
wind
direction
speed
knots
gust
knots
rain 1hr
in
rain 24hr
in
rain mn
in
humidity
%
barometer
mb
20260509233043 72 333 2.6 11.3 0.00 0.00 0.00 33 1004.9
20260509231545 72 309 2.6 9.6 0.00 0.00 0.00 33 1004.6
20260509230049 73 298 5.2 13.9 0.00 0.00 0.00 32 1004.4
20260509224544 73 273 2.6 10.4 0.00 0.00 0.00 33 1004.2
20260509223049 74 300 4.3 12.2 0.00 0.00 0.00 32 1004.0
20260509221541 74 257 4.3 13.9 0.00 0.00 0.00 30 1003.9
20260509220043 75 337 4.3 13.0 0.00 0.00 0.00 30 1003.5
20260509214545 75 309 4.3 13.9 0.00 0.00 0.00 30 1003.3
20260509213057 76 288 4.3 13.0 0.00 0.00 0.00 29 1003.0
20260509211542 76 317 3.5 13.9 0.00 0.00 0.00 30 1003.0
20260509210100 76 160 6.1 16.5 0.00 0.00 0.00 30 1002.8
20260509204545 75 277 4.3 17.4 0.00 0.00 0.00 30 1002.8
20260509203043 75 204 4.3 11.3 0.00 0.00 0.00 30 1002.9
20260509201543 76 297 5.2 14.8 0.00 0.00 0.00 30 1002.9
20260509200043 75 298 4.3 13.0 0.00 0.00 0.00 30 1003.0
20260509194545 75 194 4.3 13.0 0.00 0.00 0.00 30 1003.1
20260509193044 74 276 7.0 19.1 0.00 0.00 0.00 31 1003.1
20260509191546 75 264 5.2 13.0 0.00 0.00 0.00 29 1003.1
20260509190048 75 230 5.2 12.2 0.00 0.00 0.00 30 1002.9
20260509184553 76 175 2.6 12.2 0.00 0.00 0.00 30 1003.0
20260509183048 75 238 4.3 11.3 0.00 0.00 0.00 29 1003.0
20260509181556 75 255 3.5 9.6 0.00 0.00 0.00 29 1003.2
20260509180049 75 273 2.6 9.6 0.00 0.00 0.00 32 1003.2
20260509174542 75 291 2.6 10.4 0.00 0.00 0.00 34 1003.2
20260509173046 75 104 4.3 13.0 0.00 0.00 0.00 40 1003.4
20260509171550 74 253 3.5 11.3 0.00 0.00 0.00 44 1003.6
20260509170048 74 163 1.7 7.0 0.00 0.00 0.00 46 1003.6
20260509164543 73 215 2.6 8.7 0.00 0.00 0.00 47 1003.7
20260509163043 71 180 2.6 7.8 0.00 0.00 0.00 50 1003.7
20260509161542 69 141 2.6 9.6 0.00 0.00 0.00 55 1003.7
20260509160043 68 200 2.6 11.3 0.00 0.00 0.00 57 1003.6
20260509154553 67 270 2.6 7.8 0.00 0.00 0.00 59 1003.6
20260509153058 67 246 1.7 9.6 0.00 0.00 0.00 61 1003.5
20260509151548 67 244 3.5 11.3 0.00 0.00 0.00 62 1003.6
20260509150047 65 208 2.6 9.6 0.00 0.00 0.00 66 1003.5
20260509144542 64 188 4.3 8.7 0.00 0.00 0.00 68 1003.5
20260509143051 63 218 2.6 7.8 0.00 0.00 0.00 71 1003.5
20260509141546 62 160 3.5 11.3 0.00 0.00 0.00 71 1003.4
20260509140052 62 227 2.6 13.9 0.00 0.00 0.00 72 1003.5
20260509134542 61 187 3.5 9.6 0.00 0.00 0.00 73 1003.3
20260509133046 60 234 3.5 8.7 0.00 0.00 0.00 74 1003.4
20260509131544 59 227 4.3 8.7 0.00 0.00 0.00 76 1003.5
20260509130041 58 83 2.6 12.2 0.00 0.00 0.00 79 1003.3
20260509124543 57 219 3.5 9.6 0.00 0.00 0.00 80 1003.4
20260509123043 56 247 2.6 10.4 0.00 0.00 0.00 83 1003.2
20260509121545 55 134 2.6 8.7 0.00 0.00 0.00 85 1003.2
20260509114548 53 188 3.5 8.7 0.00 0.00 0.00 88 1003.1
20260509113043 53 219 2.6 5.2 0.00 0.00 0.00 89 1003.0
20260509111542 53 261 1.7 6.1 0.00 0.00 0.00 90 1003.0
20260509110045 53 217 2.6 6.1 0.00 0.00 0.00 90 1002.6
20260509104543 53 223 2.6 7.8 0.00 0.01 0.00 90 1002.8
20260509103042 53 218 2.6 8.7 0.00 0.01 0.00 89 1002.8
20260509101552 53 186 0.9 5.2 0.00 0.01 0.00 88 1002.9
20260509100044 53 229 1.7 4.3 0.00 0.01 0.00 88 1003.0
20260509094548 54 241 0.9 5.2 0.00 0.01 0.00 87 1003.2
20260509093043 54 229 0.9 7.8 0.00 0.01 0.00 87 1003.5
20260509091544 53 222 2.6 7.8 0.00 0.01 0.00 88 1003.4
20260509090044 53 259 3.5 7.8 0.00 0.01 0.00 87 1003.5
20260509084547 54 181 0.9 6.1 0.00 0.01 0.00 87 1003.6
20260509083048 54 238 2.6 7.8 0.00 0.01 0.00 87 1003.6
20260509081543 54 214 2.6 7.8 0.00 0.01 0.00 86 1003.4
20260509080048 54 212 2.6 8.7 0.00 0.01 0.00 85 1003.5
20260509074551 54 207 1.7 8.7 0.00 0.01 0.00 84 1003.6
20260509073114 54 222 1.7 7.0 0.00 0.01 0.00 84 1003.8
20260509071544 54 214 3.5 8.7 0.00 0.01 0.00 83 1003.9
20260509070047 55 275 1.7 7.0 0.00 0.01 0.00 83 1004.2
20260509064543 55 217 2.6 8.7 0.00 0.01 0.00 82 1004.3
20260509063040 55 0 0.9 7.0 0.00 0.01 0.00 82 1004.4
20260509061544 55 165 1.7 7.0 0.00 0.01 0.00 82 1004.5
20260509060058 56 227 2.6 7.8 0.00 0.01 0.00 82 1004.8
20260509054555 56 254 2.6 8.7 0.00 0.01 0.00 82 1004.8
20260509053042 57 206 2.6 10.4 0.00 0.01 0.00 80 1004.8
20260509051545 57 208 1.7 8.7 0.00 0.01 0.00 80 1004.7
20260509050050 57 266 1.7 7.0 0.00 0.01 0.00 78 1004.8
20260509044546 57 239 3.5 7.0 0.00 0.01 0.01 77 1004.8
20260509043050 57 269 2.6 10.4 0.00 0.01 0.01 76 1004.9
20260509041544 58 214 1.7 7.8 0.00 0.01 0.01 73 1004.9
20260509034548 58 211 2.6 7.0 0.00 0.01 0.01 72 1005.0
20260509033047 57 242 1.7 5.2 0.00 0.01 0.01 73 1005.1
20260509031548 56 221 0.9 4.3 0.00 0.01 0.01 72 1005.2
20260509030047 55 162 0.9 4.3 0.00 0.01 0.01 70 1005.1
20260509024544 55 166 0.9 5.2 0.00 0.01 0.01 69 1005.3
20260509023044 55 147 1.7 2.6 0.00 0.01 0.01 68 1005.3
20260509021545 56 150 0.9 2.6 0.00 0.01 0.01 68 1005.3
20260509020044 56 138 1.7 3.5 0.00 0.01 0.01 67 1005.3
20260509014544 56 129 0.9 3.5 0.00 0.01 0.01 66 1005.2
20260509013051 57 152 1.7 5.2 0.00 0.01 0.01 65 1005.2
20260509011556 57 164 1.7 3.5 0.00 0.01 0.01 64 1005.1
20260509010049 58 120 0.9 3.5 0.00 0.01 0.01 63 1005.1
20260509004604 58 109 2.6 7.0 0.00 0.01 0.01 62 1005.2
20260509003044 59 135 3.5 7.8 0.00 0.01 0.01 61 1005.3
20260509001549 60 85 0.9 7.0 0.00 0.01 0.01 61 1005.3
20260509000042 60 84 1.7 7.0 0.00 0.01 0.01 62 1005.4
20260508234548 60 124 1.7 7.0 0.00 0.01 0.01 62 1005.5